Time,TemperatureF,DewpointF,PressureIn,WindDirection,WindDirectionDegrees,WindSpeedMPH,WindSpeedGustMPH,Humidity,HourlyPrecipIn,Conditions,Clouds,dailyrainin,SoftwareType,DateUTC
2013-04-08 00:00:00,40.6,38.5,30.00,SSW,210,0.0,0.0,92,0.00,,,0.00,VWS V14.01,2013-04-08 04:00:00,
2013-04-08 00:01:00,40.6,38.7,30.00,SSW,210,0.0,0.0,93,0.00,,,0.00,VWS V14.01,2013-04-08 04:01:00,
2013-04-08 00:06:00,40.6,38.7,30.00,SSW,210,0.0,0.0,93,0.00,,,0.00,VWS V14.01,2013-04-08 04:06:00,
2013-04-08 00:11:00,40.6,38.5,30.00,SSW,210,0.0,0.0,92,0.00,,,0.00,VWS V14.01,2013-04-08 04:11:00,
2013-04-08 00:16:00,40.6,38.7,30.00,SSW,210,0.0,0.0,93,0.00,,,0.00,VWS V14.01,2013-04-08 04:16:00,
2013-04-08 00:21:00,40.5,38.6,30.00,SSW,210,0.0,0.0,93,0.00,,,0.00,VWS V14.01,2013-04-08 04:21:00,
2013-04-08 00:26:00,40.5,38.6,30.00,SSW,210,0.0,0.0,93,0.00,,,0.00,VWS V14.01,2013-04-08 04:26:00,
2013-04-08 00:31:00,40.4,38.3,30.00,SSW,211,0.0,0.0,92,0.00,,,0.00,VWS V14.01,2013-04-08 04:31:00,
2013-04-08 00:37:00,40.3,38.4,30.00,SSW,210,0.0,0.0,93,0.00,,,0.00,VWS V14.01,2013-04-08 04:37:00,
2013-04-08 00:42:00,40.2,38.1,30.00,SSW,210,0.0,0.0,92,0.00,,,0.00,VWS V14.01,2013-04-08 04:42:00,
2013-04-08 00:47:00,40.0,37.9,29.99,SSW,210,0.0,0.0,92,0.00,,,0.00,VWS V14.01,2013-04-08 04:47:00,
2013-04-08 00:52:00,39.8,37.7,29.99,SSW,210,0.0,0.0,92,0.00,,,0.00,VWS V14.01,2013-04-08 04:52:00,
2013-04-08 00:57:00,39.6,37.5,29.99,SSW,210,0.0,0.0,92,0.00,,,0.00,VWS V14.01,2013-04-08 04:57:00,
2013-04-08 01:02:00,39.4,37.5,29.99,SSW,210,0.0,0.0,93,0.00,,,0.00,VWS V14.01,2013-04-08 05:02:00,
2013-04-08 01:07:00,39.3,37.5,29.99,SSW,210,0.0,0.0,93,0.00,,,0.00,VWS V14.01,2013-04-08 05:07:00,
2013-04-08 01:12:00,39.2,37.3,29.99,SSW,210,0.0,0.0,93,0.00,,,0.00,VWS V14.01,2013-04-08 05:12:00,
2013-04-08 01:17:00,39.1,37.2,29.99,SSW,211,0.0,0.0,93,0.00,,,0.00,VWS V14.01,2013-04-08 05:17:00,
2013-04-08 01:22:00,39.0,37.4,29.99,SSW,210,0.0,0.0,94,0.00,,,0.00,VWS V14.01,2013-04-08 05:22:00,
2013-04-08 01:27:00,38.9,37.3,29.99,SSW,210,0.0,0.0,94,0.00,,,0.00,VWS V14.01,2013-04-08 05:27:00,
2013-04-08 01:32:00,38.6,36.8,29.99,SSW,210,0.0,0.0,93,0.00,,,0.00,VWS V14.01,2013-04-08 05:32:00,
2013-04-08 01:37:00,38.3,36.5,29.99,SSW,210,0.0,0.0,93,0.00,,,0.00,VWS V14.01,2013-04-08 05:37:00,
2013-04-08 01:43:00,38.1,36.3,29.99,SSW,210,0.0,0.0,93,0.00,,,0.00,VWS V14.01,2013-04-08 05:43:00,
2013-04-08 01:48:00,37.9,36.3,29.99,SSW,210,0.0,0.0,94,0.00,,,0.00,VWS V14.01,2013-04-08 05:48:00,
2013-04-08 01:53:00,38.0,36.4,29.99,SSW,210,0.0,0.0,94,0.00,,,0.00,VWS V14.01,2013-04-08 05:53:00,
2013-04-08 01:58:00,37.9,36.3,29.99,SSW,210,0.0,0.0,94,0.00,,,0.00,VWS V14.01,2013-04-08 05:58:00,
2013-04-08 02:03:00,37.5,35.9,29.99,SSW,210,0.0,0.0,94,0.00,,,0.00,VWS V14.01,2013-04-08 06:03:00,
2013-04-08 02:08:00,37.4,35.8,29.98,SSW,210,0.0,0.0,94,0.00,,,0.00,VWS V14.01,2013-04-08 06:08:00,
2013-04-08 02:13:00,37.4,36.1,29.98,SSW,210,0.0,0.0,95,0.00,,,0.00,VWS V14.01,2013-04-08 06:13:00,
2013-04-08 02:18:00,37.3,36.0,29.98,SSW,210,0.0,0.0,95,0.00,,,0.00,VWS V14.01,2013-04-08 06:18:00,
2013-04-08 02:23:00,37.1,35.5,29.98,SSW,211,0.0,0.0,94,0.00,,,0.00,VWS V14.01,2013-04-08 06:23:00,
2013-04-08 02:29:00,37.0,35.7,29.98,SSW,210,0.0,0.0,95,0.00,,,0.00,VWS V14.01,2013-04-08 06:29:00,
2013-04-08 02:34:00,37.0,35.7,29.98,SSW,211,0.0,0.0,95,0.00,,,0.00,VWS V14.01,2013-04-08 06:34:00,
2013-04-08 02:39:00,36.9,35.6,29.98,SSW,210,0.0,0.0,95,0.00,,,0.00,VWS V14.01,2013-04-08 06:39:00,
2013-04-08 02:44:00,36.8,35.5,29.98,SSW,210,0.0,0.0,95,0.00,,,0.00,VWS V14.01,2013-04-08 06:44:00,
2013-04-08 02:49:00,36.8,35.5,29.98,SSW,210,0.0,0.0,95,0.00,,,0.00,VWS V14.01,2013-04-08 06:49:00,
2013-04-08 02:54:00,36.8,35.5,29.97,SSW,211,0.0,1.0,95,0.00,,,0.00,VWS V14.01,2013-04-08 06:54:00,
2013-04-08 02:59:00,36.7,35.4,29.97,SSW,211,0.0,1.0,95,0.00,,,0.00,VWS V14.01,2013-04-08 06:59:00,
2013-04-08 03:04:00,36.5,35.2,29.97,SSW,211,0.0,0.0,95,0.00,,,0.00,VWS V14.01,2013-04-08 07:04:00,
2013-04-08 03:09:00,36.4,35.1,29.97,SSW,211,0.0,0.0,95,0.00,,,0.00,VWS V14.01,2013-04-08 07:09:00,
2013-04-08 03:14:00,36.2,34.9,29.97,SSW,211,0.0,0.0,95,0.00,,,0.00,VWS V14.01,2013-04-08 07:14:00,
2013-04-08 03:19:00,36.2,34.9,29.97,SSW,211,1.0,2.0,95,0.00,,,0.00,VWS V14.01,2013-04-08 07:19:00,
2013-04-08 03:24:00,36.4,35.4,29.97,SSW,211,0.0,2.0,96,0.00,,,0.00,VWS V14.01,2013-04-08 07:24:00,
2013-04-08 03:29:00,36.5,35.5,29.97,SSW,211,0.0,2.0,96,0.00,,,0.00,VWS V14.01,2013-04-08 07:29:00,
2013-04-08 03:34:00,36.8,35.8,29.97,SSW,211,0.0,1.0,96,0.00,,,0.00,VWS V14.01,2013-04-08 07:34:00,
2013-04-08 03:39:00,37.0,36.2,29.97,SSW,211,0.0,1.0,97,0.00,,,0.00,VWS V14.01,2013-04-08 07:39:00,
2013-04-08 03:45:00,36.8,35.8,29.97,SSW,211,0.0,1.0,96,0.00,,,0.00,VWS V14.01,2013-04-08 07:45:00,
2013-04-08 03:50:00,36.3,35.0,29.97,SSW,211,0.0,1.0,95,0.00,,,0.00,VWS V14.01,2013-04-08 07:50:00,
2013-04-08 03:55:00,36.2,35.2,29.97,SSW,211,0.0,1.0,96,0.00,,,0.00,VWS V14.01,2013-04-08 07:55:00,
2013-04-08 04:00:00,36.1,35.1,29.97,SSW,211,0.0,1.0,96,0.00,,,0.00,VWS V14.01,2013-04-08 08:00:00,
2013-04-08 04:05:00,36.1,35.1,29.97,SSW,211,0.0,0.0,96,0.00,,,0.00,VWS V14.01,2013-04-08 08:05:00,
2013-04-08 04:10:00,35.8,34.8,29.97,SSW,211,0.0,1.0,96,0.00,,,0.00,VWS V14.01,2013-04-08 08:10:00,
2013-04-08 04:15:00,35.6,34.6,29.97,SSW,211,0.0,1.0,96,0.00,,,0.00,VWS V14.01,2013-04-08 08:15:00,
2013-04-08 04:20:00,35.7,34.7,29.98,SSW,211,0.0,1.0,96,0.00,,,0.00,VWS V14.01,2013-04-08 08:20:00,
2013-04-08 04:25:00,35.6,34.6,29.98,SSW,211,0.0,1.0,96,0.00,,,0.00,VWS V14.01,2013-04-08 08:25:00,
2013-04-08 04:30:00,35.4,34.4,29.98,SSW,211,0.0,1.0,96,0.00,,,0.00,VWS V14.01,2013-04-08 08:30:00,
2013-04-08 04:35:00,35.2,34.2,29.97,SSW,211,0.0,0.0,96,0.00,,,0.00,VWS V14.01,2013-04-08 08:35:00,
2013-04-08 04:41:00,35.0,34.0,29.98,SSW,211,0.0,0.0,96,0.00,,,0.00,VWS V14.01,2013-04-08 08:41:00,
2013-04-08 04:46:00,34.8,33.8,29.98,SSW,211,0.0,0.0,96,0.00,,,0.00,VWS V14.01,2013-04-08 08:46:00,
2013-04-08 04:51:00,34.7,33.7,29.99,SSW,211,0.0,0.0,96,0.00,,,0.00,VWS V14.01,2013-04-08 08:51:00,
2013-04-08 04:56:00,34.8,33.8,29.99,SSW,211,0.0,0.0,96,0.00,,,0.00,VWS V14.01,2013-04-08 08:56:00,
2013-04-08 05:01:00,34.9,33.9,29.99,SSW,211,0.0,0.0,96,0.00,,,0.00,VWS V14.01,2013-04-08 09:01:00,
2013-04-08 05:06:00,34.8,33.8,29.99,SSW,211,0.0,0.0,96,0.00,,,0.00,VWS V14.01,2013-04-08 09:06:00,
2013-04-08 05:11:00,34.6,33.6,29.99,SSW,211,0.0,0.0,96,0.00,,,0.00,VWS V14.01,2013-04-08 09:11:00,
2013-04-08 05:16:00,34.4,33.4,29.98,SSW,211,0.0,0.0,96,0.00,,,0.00,VWS V14.01,2013-04-08 09:16:00,
2013-04-08 05:22:00,34.3,33.3,29.98,SSW,211,0.0,0.0,96,0.00,,,0.00,VWS V14.01,2013-04-08 09:22:00,
2013-04-08 05:27:00,34.2,33.2,29.99,SSW,211,0.0,0.0,96,0.00,,,0.00,VWS V14.01,2013-04-08 09:27:00,
2013-04-08 05:32:00,34.2,33.2,29.99,SSW,211,0.0,0.0,96,0.00,,,0.00,VWS V14.01,2013-04-08 09:32:00,
2013-04-08 05:37:00,34.1,33.3,29.98,SSW,211,0.0,0.0,97,0.00,,,0.00,VWS V14.01,2013-04-08 09:37:00,
2013-04-08 05:42:00,34.1,33.1,29.98,SSW,211,0.0,0.0,96,0.00,,,0.00,VWS V14.01,2013-04-08 09:42:00,
2013-04-08 05:47:00,34.0,33.0,29.99,SSW,211,0.0,0.0,96,0.00,,,0.00,VWS V14.01,2013-04-08 09:47:00,
2013-04-08 05:52:00,33.9,32.9,29.99,SSW,211,0.0,0.0,96,0.00,,,0.00,VWS V14.01,2013-04-08 09:52:00,
2013-04-08 05:57:00,33.9,32.9,29.99,SSW,211,0.0,0.0,96,0.00,,,0.00,VWS V14.01,2013-04-08 09:57:00,
2013-04-08 06:02:00,33.9,33.1,29.99,SSW,211,0.0,0.0,97,0.00,,,0.00,VWS V14.01,2013-04-08 10:02:00,
2013-04-08 06:07:00,33.8,33.0,29.99,SSW,211,0.0,0.0,97,0.00,,,0.00,VWS V14.01,2013-04-08 10:07:00,
2013-04-08 06:12:00,33.9,33.1,30.00,SSW,211,0.0,0.0,97,0.00,,,0.00,VWS V14.01,2013-04-08 10:12:00,
2013-04-08 06:18:00,34.1,33.3,30.00,SSW,211,0.0,0.0,97,0.00,,,0.00,VWS V14.01,2013-04-08 10:18:00,
2013-04-08 06:22:00,34.2,33.4,30.00,SSW,211,0.0,0.0,97,0.00,,,0.00,VWS V14.01,2013-04-08 10:22:00,
2013-04-08 06:28:00,34.2,33.4,30.00,SSW,211,0.0,0.0,97,0.00,,,0.00,VWS V14.01,2013-04-08 10:28:00,
2013-04-08 06:33:00,34.4,33.6,30.01,SSW,211,0.0,0.0,97,0.00,,,0.00,VWS V14.01,2013-04-08 10:33:00,
2013-04-08 06:38:00,34.7,33.9,30.01,SSW,211,0.0,0.0,97,0.00,,,0.00,VWS V14.01,2013-04-08 10:38:00,
2013-04-08 06:43:00,34.8,34.3,30.02,SSW,211,0.0,0.0,98,0.00,,,0.00,VWS V14.01,2013-04-08 10:43:00,
2013-04-08 06:48:00,34.9,34.4,30.02,SSW,211,0.0,0.0,98,0.00,,,0.00,VWS V14.01,2013-04-08 10:48:00,
2013-04-08 06:53:00,34.9,34.4,30.02,SSW,211,0.0,0.0,98,0.00,,,0.00,VWS V14.01,2013-04-08 10:53:00,
2013-04-08 06:58:00,35.0,34.5,30.02,SSW,211,0.0,0.0,98,0.00,,,0.00,VWS V14.01,2013-04-08 10:58:00,
2013-04-08 07:03:00,35.1,34.6,30.02,SSW,211,0.0,0.0,98,0.00,,,0.00,VWS V14.01,2013-04-08 11:03:00,
2013-04-08 07:08:00,35.2,34.7,30.02,SSW,211,0.0,0.0,98,0.00,,,0.00,VWS V14.01,2013-04-08 11:08:00,
2013-04-08 07:13:00,35.4,34.9,30.03,SSW,211,0.0,0.0,98,0.00,,,0.00,VWS V14.01,2013-04-08 11:13:00,
2013-04-08 07:18:00,35.6,35.1,30.03,SSW,211,0.0,0.0,98,0.00,,,0.00,VWS V14.01,2013-04-08 11:18:00,
2013-04-08 07:24:00,36.0,35.5,30.03,SSW,211,0.0,0.0,98,0.00,,,0.00,VWS V14.01,2013-04-08 11:24:00,
2013-04-08 07:29:00,36.6,36.1,30.03,SSW,211,0.0,0.0,98,0.00,,,0.00,VWS V14.01,2013-04-08 11:29:00,
2013-04-08 07:34:00,37.2,36.7,30.03,SSW,211,0.0,0.0,98,0.00,,,0.00,VWS V14.01,2013-04-08 11:34:00,
2013-04-08 07:39:00,37.5,37.0,30.03,SSW,211,0.0,1.0,98,0.00,,,0.00,VWS V14.01,2013-04-08 11:39:00,
2013-04-08 07:44:00,37.7,37.2,30.03,SSW,211,0.0,1.0,98,0.00,,,0.00,VWS V14.01,2013-04-08 11:44:00,
2013-04-08 07:49:00,38.0,37.5,30.03,SSW,211,0.0,1.0,98,0.00,,,0.00,VWS V14.01,2013-04-08 11:49:00,
2013-04-08 07:54:00,38.3,37.8,30.04,SSW,211,0.0,1.0,98,0.00,,,0.00,VWS V14.01,2013-04-08 11:54:00,
2013-04-08 07:59:00,38.6,38.1,30.04,SSW,211,0.0,1.0,98,0.00,,,0.00,VWS V14.01,2013-04-08 11:59:00,
2013-04-08 08:04:00,39.1,38.6,30.04,SSW,211,0.0,0.0,98,0.00,,,0.00,VWS V14.01,2013-04-08 12:04:00,
2013-04-08 08:09:00,39.5,39.0,30.04,SSW,211,0.0,0.0,98,0.00,,,0.00,VWS V14.01,2013-04-08 12:09:00,
2013-04-08 08:14:00,39.9,39.4,30.04,SSW,211,0.0,1.0,98,0.00,,,0.00,VWS V14.01,2013-04-08 12:14:00,
2013-04-08 08:19:00,40.5,40.0,30.04,SSW,211,0.0,1.0,98,0.00,,,0.00,VWS V14.01,2013-04-08 12:19:00,
2013-04-08 08:25:00,41.0,40.5,30.04,SSW,211,0.0,1.0,98,0.00,,,0.00,VWS V14.01,2013-04-08 12:25:00,
2013-04-08 08:30:00,41.6,41.1,30.04,SSW,211,0.0,1.0,98,0.00,,,0.00,VWS V14.01,2013-04-08 12:30:00,
2013-04-08 08:35:00,42.2,41.7,30.04,SSW,211,0.0,1.0,98,0.00,,,0.00,VWS V14.01,2013-04-08 12:35:00,
2013-04-08 08:40:00,43.6,43.1,30.05,SSW,206,0.0,3.0,98,0.00,,,0.00,VWS V14.01,2013-04-08 12:40:00,
2013-04-08 08:45:00,45.2,44.4,30.05,SSW,206,1.0,3.0,97,0.00,,,0.00,VWS V14.01,2013-04-08 12:45:00,
2013-04-08 08:50:00,46.5,44.3,30.05,SSW,206,0.0,3.0,92,0.00,,,0.00,VWS V14.01,2013-04-08 12:50:00,
2013-04-08 08:55:00,47.8,44.1,30.05,SSE,161,0.0,3.0,87,0.00,,,0.00,VWS V14.01,2013-04-08 12:55:00,
2013-04-08 09:00:00,49.0,43.1,30.04,SSE,161,0.0,3.0,80,0.00,,,0.00,VWS V14.01,2013-04-08 13:00:00,
2013-04-08 09:05:00,49.7,42.5,30.05,East,88,0.0,3.0,76,0.00,,,0.00,VWS V14.01,2013-04-08 13:05:00,
2013-04-08 09:10:00,50.6,41.6,30.05,ENE,66,1.0,4.0,71,0.00,,,0.00,VWS V14.01,2013-04-08 13:10:00,
2013-04-08 09:15:00,51.7,41.5,30.05,NE,43,1.0,4.0,68,0.00,,,0.00,VWS V14.01,2013-04-08 13:15:00,
2013-04-08 09:20:00,52.5,41.9,30.05,North,5,3.0,5.0,67,0.00,,,0.00,VWS V14.01,2013-04-08 13:20:00,
2013-04-08 09:25:00,53.0,41.2,30.05,South,182,0.0,6.0,64,0.00,,,0.00,VWS V14.01,2013-04-08 13:25:00,
2013-04-08 09:30:00,53.6,42.1,30.06,NW,314,1.0,6.0,65,0.00,,,0.00,VWS V14.01,2013-04-08 13:30:00,
2013-04-08 09:36:00,54.0,41.3,30.06,SSW,194,0.0,3.0,62,0.00,,,0.00,VWS V14.01,2013-04-08 13:36:00,
2013-04-08 09:41:00,54.5,40.9,30.06,South,186,3.0,4.0,60,0.00,,,0.00,VWS V14.01,2013-04-08 13:41:00,
2013-04-08 09:46:00,54.8,41.2,30.06,West,269,0.0,4.0,60,0.00,,,0.00,VWS V14.01,2013-04-08 13:46:00,
2013-04-08 09:51:00,55.4,40.4,30.07,NW,315,2.0,4.0,57,0.00,,,0.00,VWS V14.01,2013-04-08 13:51:00,
2013-04-08 09:56:00,55.4,40.4,30.07,SSW,199,0.0,4.0,57,0.00,,,0.00,VWS V14.01,2013-04-08 13:56:00,
2013-04-08 10:01:00,55.7,41.2,30.07,East,88,1.0,4.0,58,0.00,,,0.00,VWS V14.01,2013-04-08 14:01:00,
2013-04-08 10:06:00,55.8,39.4,30.07,South,183,0.0,5.0,54,0.00,,,0.00,VWS V14.01,2013-04-08 14:06:00,
2013-04-08 10:11:00,55.6,40.6,30.06,East,82,1.0,5.0,57,0.00,,,0.00,VWS V14.01,2013-04-08 14:11:00,
2013-04-08 10:17:00,56.1,40.6,30.07,NNW,340,0.0,5.0,56,0.00,,,0.00,VWS V14.01,2013-04-08 14:17:00,
2013-04-08 10:22:00,56.2,40.7,30.07,South,190,4.0,5.0,56,0.00,,,0.00,VWS V14.01,2013-04-08 14:22:00,
2013-04-08 10:27:00,56.0,40.1,30.07,SE,132,2.0,8.0,55,0.00,,,0.00,VWS V14.01,2013-04-08 14:27:00,
2013-04-08 10:32:00,56.3,39.9,30.07,West,278,2.0,3.0,54,0.00,,,0.00,VWS V14.01,2013-04-08 14:32:00,
2013-04-08 10:37:00,56.9,40.9,30.07,NW,310,1.0,6.0,55,0.00,,,0.00,VWS V14.01,2013-04-08 14:37:00,
2013-04-08 10:42:00,57.1,40.6,30.07,South,175,0.0,6.0,54,0.00,,,0.00,VWS V14.01,2013-04-08 14:42:00,
2013-04-08 10:47:00,57.0,39.1,30.07,North,351,1.0,7.0,51,0.00,,,0.00,VWS V14.01,2013-04-08 14:47:00,
2013-04-08 10:52:00,57.2,40.2,30.07,South,170,1.0,7.0,53,0.00,,,0.00,VWS V14.01,2013-04-08 14:52:00,
2013-04-08 10:57:00,57.1,40.2,30.07,West,274,0.0,9.0,53,0.00,,,0.00,VWS V14.01,2013-04-08 14:57:00,
2013-04-08 11:02:00,57.1,39.7,30.07,North,355,0.0,5.0,52,0.00,,,0.00,VWS V14.01,2013-04-08 15:02:00,
2013-04-08 11:07:00,57.4,40.4,30.06,South,177,4.0,6.0,53,0.00,,,0.00,VWS V14.01,2013-04-08 15:07:00,
2013-04-08 11:13:00,57.9,39.9,30.07,South,169,2.0,6.0,51,0.00,,,0.00,VWS V14.01,2013-04-08 15:13:00,
2013-04-08 11:18:00,58.3,41.3,30.07,ENE,68,4.0,8.0,53,0.00,,,0.00,VWS V14.01,2013-04-08 15:18:00,
2013-04-08 11:23:00,58.6,40.0,30.06,SSW,210,2.0,8.0,50,0.00,,,0.00,VWS V14.01,2013-04-08 15:23:00,
2013-04-08 11:28:00,58.9,40.8,30.06,NE,35,1.0,8.0,51,0.00,,,0.00,VWS V14.01,2013-04-08 15:28:00,
2013-04-08 11:33:00,59.2,41.1,30.06,WNW,290,1.0,2.0,51,0.00,,,0.00,VWS V14.01,2013-04-08 15:33:00,
2013-04-08 11:38:00,59.4,40.2,30.07,North,5,5.0,6.0,49,0.00,,,0.00,VWS V14.01,2013-04-08 15:38:00,
2013-04-08 11:43:00,59.3,40.2,30.07,North,11,3.0,9.0,49,0.00,,,0.00,VWS V14.01,2013-04-08 15:43:00,
2013-04-08 11:48:00,58.7,39.6,30.06,North,351,0.0,10.0,49,0.00,,,0.00,VWS V14.01,2013-04-08 15:48:00,
2013-04-08 11:53:00,59.1,40.0,30.06,NW,309,3.0,10.0,49,0.00,,,0.00,VWS V14.01,2013-04-08 15:53:00,
2013-04-08 11:58:00,59.4,40.8,30.06,East,97,0.0,10.0,50,0.00,,,0.00,VWS V14.01,2013-04-08 15:58:00,
2013-04-08 12:03:00,60.4,40.6,30.06,South,177,1.0,4.0,48,0.00,,,0.00,VWS V14.01,2013-04-08 16:03:00,
2013-04-08 12:08:00,60.8,41.5,30.06,NNW,335,3.0,8.0,49,0.00,,,0.00,VWS V14.01,2013-04-08 16:08:00,
2013-04-08 12:13:00,60.6,39.7,30.06,NE,34,3.0,8.0,46,0.00,,,0.00,VWS V14.01,2013-04-08 16:13:00,
2013-04-08 12:18:00,60.5,40.2,30.06,NE,47,2.0,8.0,47,0.00,,,0.00,VWS V14.01,2013-04-08 16:18:00,
2013-04-08 12:23:00,61.4,41.6,30.06,NW,321,2.0,8.0,48,0.00,,,0.00,VWS V14.01,2013-04-08 16:23:00,
2013-04-08 12:29:00,62.3,40.7,30.06,SSE,167,2.0,8.0,45,0.00,,,0.00,VWS V14.01,2013-04-08 16:29:00,
2013-04-08 12:34:00,61.9,39.8,30.06,NNW,343,0.0,8.0,44,0.00,,,0.00,VWS V14.01,2013-04-08 16:34:00,
2013-04-08 12:39:00,61.9,40.9,30.06,NNW,344,2.0,8.0,46,0.00,,,0.00,VWS V14.01,2013-04-08 16:39:00,
2013-04-08 12:44:00,62.5,40.3,30.06,East,87,1.0,8.0,44,0.00,,,0.00,VWS V14.01,2013-04-08 16:44:00,
2013-04-08 12:49:00,62.6,40.4,30.06,SSE,161,4.0,8.0,44,0.00,,,0.00,VWS V14.01,2013-04-08 16:49:00,
2013-04-08 12:54:00,63.2,41.0,30.06,SSE,150,0.0,8.0,44,0.00,,,0.00,VWS V14.01,2013-04-08 16:54:00,
2013-04-08 12:59:00,64.0,40.5,30.06,SE,146,6.0,8.0,42,0.00,,,0.00,VWS V14.01,2013-04-08 16:59:00,
2013-04-08 13:04:00,63.8,40.3,30.06,SSW,213,2.0,7.0,42,0.00,,,0.00,VWS V14.01,2013-04-08 17:04:00,
2013-04-08 13:09:00,64.1,39.9,30.06,NW,307,4.0,7.0,41,0.00,,,0.00,VWS V14.01,2013-04-08 17:09:00,
2013-04-08 13:15:00,63.6,39.5,30.05,ESE,107,0.0,9.0,41,0.00,,,0.00,VWS V14.01,2013-04-08 17:15:00,
2013-04-08 13:20:00,64.3,39.5,30.05,South,175,1.0,9.0,40,0.00,,,0.00,VWS V14.01,2013-04-08 17:20:00,
2013-04-08 13:25:00,64.8,40.6,30.05,NNE,18,0.0,9.0,41,0.00,,,0.00,VWS V14.01,2013-04-08 17:25:00,
2013-04-08 13:30:00,65.5,40.6,30.06,SSE,160,0.0,9.0,40,0.00,,,0.00,VWS V14.01,2013-04-08 17:30:00,
2013-04-08 13:35:00,65.7,39.4,30.05,South,179,2.0,8.0,38,0.00,,,0.00,VWS V14.01,2013-04-08 17:35:00,
2013-04-08 13:40:00,65.9,40.3,30.05,South,188,2.0,8.0,39,0.00,,,0.00,VWS V14.01,2013-04-08 17:40:00,
2013-04-08 13:45:00,66.3,40.6,30.04,SSE,165,2.0,8.0,39,0.00,,,0.00,VWS V14.01,2013-04-08 17:45:00,
2013-04-08 13:51:00,66.3,40.0,30.04,SSW,196,2.0,8.0,38,0.00,,,0.00,VWS V14.01,2013-04-08 17:51:00,
2013-04-08 13:56:00,66.0,40.4,30.04,East,98,1.0,8.0,39,0.00,,,0.00,VWS V14.01,2013-04-08 17:56:00,
2013-04-08 14:02:00,66.5,40.1,30.04,SSE,151,0.0,2.0,38,0.00,,,0.00,VWS V14.01,2013-04-08 18:02:00,
2013-04-08 14:07:00,66.3,40.0,30.04,South,180,0.0,5.0,38,0.00,,,0.00,VWS V14.01,2013-04-08 18:07:00,
2013-04-08 14:12:00,66.4,40.7,30.04,ENE,74,1.0,5.0,39,0.00,,,0.00,VWS V14.01,2013-04-08 18:12:00,
2013-04-08 14:17:00,66.1,39.8,30.04,NNW,347,2.0,6.0,38,0.00,,,0.00,VWS V14.01,2013-04-08 18:17:00,
2013-04-08 14:22:00,66.0,39.7,30.03,NW,315,1.0,9.0,38,0.00,,,0.00,VWS V14.01,2013-04-08 18:22:00,
2013-04-08 14:27:00,66.1,39.1,30.04,North,355,4.0,9.0,37,0.00,,,0.00,VWS V14.01,2013-04-08 18:27:00,
2013-04-08 14:32:00,65.8,39.5,30.03,ESE,121,2.0,4.0,38,0.00,,,0.00,VWS V14.01,2013-04-08 18:32:00,
2013-04-08 14:37:00,65.6,38.7,30.03,SE,126,0.0,7.0,37,0.00,,,0.00,VWS V14.01,2013-04-08 18:37:00,
2013-04-08 14:42:00,65.9,39.6,30.03,WSW,244,0.0,7.0,38,0.00,,,0.00,VWS V14.01,2013-04-08 18:42:00,
2013-04-08 14:47:00,66.6,40.2,30.03,South,186,4.0,7.0,38,0.00,,,0.00,VWS V14.01,2013-04-08 18:47:00,
2013-04-08 14:53:00,66.8,39.7,30.03,NNE,32,0.0,7.0,37,0.00,,,0.00,VWS V14.01,2013-04-08 18:53:00,
2013-04-08 14:58:00,67.1,39.3,30.03,NNW,332,1.0,7.0,36,0.00,,,0.00,VWS V14.01,2013-04-08 18:58:00,
2013-04-08 15:03:00,67.2,40.8,30.03,SSE,158,0.0,5.0,38,0.00,,,0.00,VWS V14.01,2013-04-08 19:03:00,
2013-04-08 15:08:00,67.5,39.6,30.03,WNW,298,2.0,5.0,36,0.00,,,0.00,VWS V14.01,2013-04-08 19:08:00,
2013-04-08 15:13:00,67.4,39.5,30.02,NW,325,4.0,6.0,36,0.00,,,0.00,VWS V14.01,2013-04-08 19:13:00,
2013-04-08 15:18:00,67.5,39.6,30.02,South,179,6.0,7.0,36,0.00,,,0.00,VWS V14.01,2013-04-08 19:18:00,
2013-04-08 15:23:00,67.9,40.7,30.02,South,177,0.0,7.0,37,0.00,,,0.00,VWS V14.01,2013-04-08 19:23:00,
2013-04-08 15:28:00,68.2,38.8,30.02,South,171,2.0,7.0,34,0.00,,,0.00,VWS V14.01,2013-04-08 19:28:00,
2013-04-08 15:33:00,68.5,39.8,30.02,South,173,2.0,4.0,35,0.00,,,0.00,VWS V14.01,2013-04-08 19:33:00,
2013-04-08 15:38:00,68.5,39.0,30.01,WSW,240,0.0,4.0,34,0.00,,,0.00,VWS V14.01,2013-04-08 19:38:00,
2013-04-08 15:43:00,68.8,40.1,30.01,South,182,3.0,5.0,35,0.00,,,0.00,VWS V14.01,2013-04-08 19:43:00,
2013-04-08 15:48:00,68.8,39.3,30.01,ESE,123,0.0,5.0,34,0.00,,,0.00,VWS V14.01,2013-04-08 19:48:00,
2013-04-08 15:53:00,69.0,40.2,30.01,SE,141,0.0,5.0,35,0.00,,,0.00,VWS V14.01,2013-04-08 19:53:00,
2013-04-08 15:58:00,69.1,40.3,30.01,North,355,2.0,5.0,35,0.00,,,0.00,VWS V14.01,2013-04-08 19:58:00,
2013-04-08 16:03:00,68.9,40.2,30.01,SSE,163,4.0,5.0,35,0.00,,,0.00,VWS V14.01,2013-04-08 20:03:00,
2013-04-08 16:08:00,68.7,39.2,30.01,WNW,302,1.0,5.0,34,0.00,,,0.00,VWS V14.01,2013-04-08 20:08:00,
2013-04-08 16:13:00,68.1,37.9,30.01,WNW,296,0.0,6.0,33,0.00,,,0.00,VWS V14.01,2013-04-08 20:13:00,
2013-04-08 16:19:00,67.8,39.2,30.01,SSE,158,0.0,7.0,35,0.00,,,0.00,VWS V14.01,2013-04-08 20:19:00,
2013-04-08 16:24:00,68.1,38.7,30.00,SSE,161,0.0,7.0,34,0.00,,,0.00,VWS V14.01,2013-04-08 20:24:00,
2013-04-08 16:29:00,68.7,40.0,30.01,SE,141,0.0,7.0,35,0.00,,,0.00,VWS V14.01,2013-04-08 20:29:00,
2013-04-08 16:34:00,68.9,38.6,30.01,ESE,112,0.0,6.0,33,0.00,,,0.00,VWS V14.01,2013-04-08 20:34:00,
2013-04-08 16:39:00,68.7,39.2,30.00,SE,126,0.0,6.0,34,0.00,,,0.00,VWS V14.01,2013-04-08 20:39:00,
2013-04-08 16:44:00,68.5,38.3,30.00,SSW,196,0.0,6.0,33,0.00,,,0.00,VWS V14.01,2013-04-08 20:44:00,
2013-04-08 16:49:00,68.5,39.0,30.00,SSE,151,0.0,6.0,34,0.00,,,0.00,VWS V14.01,2013-04-08 20:49:00,
2013-04-08 16:54:00,68.3,38.1,30.00,North,355,0.0,6.0,33,0.00,,,0.00,VWS V14.01,2013-04-08 20:54:00,
2013-04-08 16:59:00,68.1,38.7,30.00,SE,145,0.0,6.0,34,0.00,,,0.00,VWS V14.01,2013-04-08 20:59:00,
2013-04-08 17:04:00,68.3,38.9,30.00,SE,145,1.0,2.0,34,0.00,,,0.00,VWS V14.01,2013-04-08 21:04:00,
2013-04-08 17:10:00,68.3,38.1,30.00,South,175,0.0,5.0,33,0.00,,,0.00,VWS V14.01,2013-04-08 21:10:00,
2013-04-08 17:15:00,68.0,37.8,30.00,South,175,0.0,5.0,33,0.00,,,0.00,VWS V14.01,2013-04-08 21:15:00,
2013-04-08 17:20:00,67.8,37.7,30.00,East,86,0.0,5.0,33,0.00,,,0.00,VWS V14.01,2013-04-08 21:20:00,
2013-04-08 17:25:00,67.7,39.1,30.00,NE,36,1.0,5.0,35,0.00,,,0.00,VWS V14.01,2013-04-08 21:25:00,
2013-04-08 17:30:00,67.7,39.8,29.99,ESE,115,1.0,5.0,36,0.00,,,0.00,VWS V14.01,2013-04-08 21:30:00,
2013-04-08 17:35:00,67.5,38.2,29.99,SE,129,1.0,2.0,34,0.00,,,0.00,VWS V14.01,2013-04-08 21:35:00,
2013-04-08 17:40:00,67.3,39.5,29.99,SE,129,0.0,2.0,36,0.00,,,0.00,VWS V14.01,2013-04-08 21:40:00,
2013-04-08 17:45:00,67.1,40.0,29.99,SE,129,1.0,2.0,37,0.00,,,0.00,VWS V14.01,2013-04-08 21:45:00,
2013-04-08 17:50:00,67.0,39.2,29.99,SE,129,0.0,2.0,36,0.00,,,0.00,VWS V14.01,2013-04-08 21:50:00,
2013-04-08 17:55:00,66.9,39.1,29.99,SE,129,0.0,2.0,36,0.00,,,0.00,VWS V14.01,2013-04-08 21:55:00,
2013-04-08 18:00:00,66.8,38.3,29.99,SE,129,0.0,2.0,35,0.00,,,0.00,VWS V14.01,2013-04-08 22:00:00,
2013-04-08 18:05:00,66.7,38.2,30.00,ESE,112,0.0,1.0,35,0.00,,,0.00,VWS V14.01,2013-04-08 22:05:00,
2013-04-08 18:10:00,66.5,38.0,30.00,ESE,112,0.0,1.0,35,0.00,,,0.00,VWS V14.01,2013-04-08 22:10:00,
2013-04-08 18:15:00,66.5,39.5,30.00,ESE,112,0.0,1.0,37,0.00,,,0.00,VWS V14.01,2013-04-08 22:15:00,
2013-04-08 18:20:00,66.3,40.0,29.99,ESE,112,0.0,1.0,38,0.00,,,0.00,VWS V14.01,2013-04-08 22:20:00,
2013-04-08 18:25:00,66.2,39.2,29.99,ESE,112,0.0,1.0,37,0.00,,,0.00,VWS V14.01,2013-04-08 22:25:00,
2013-04-08 18:30:00,66.0,39.7,29.99,ESE,112,0.0,1.0,38,0.00,,,0.00,VWS V14.01,2013-04-08 22:30:00,
2013-04-08 18:35:00,65.8,39.5,29.99,ESE,112,0.0,0.0,38,0.00,,,0.00,VWS V14.01,2013-04-08 22:35:00,
2013-04-08 18:40:00,65.6,38.7,29.99,ESE,112,0.0,0.0,37,0.00,,,0.00,VWS V14.01,2013-04-08 22:40:00,
2013-04-08 18:45:00,65.4,39.8,30.00,ESE,112,0.0,0.0,39,0.00,,,0.00,VWS V14.01,2013-04-08 22:45:00,
2013-04-08 18:50:00,65.1,39.5,30.00,ESE,112,0.0,0.0,39,0.00,,,0.00,VWS V14.01,2013-04-08 22:50:00,
2013-04-08 18:56:00,64.9,38.7,30.00,ESE,106,0.0,1.0,38,0.00,,,0.00,VWS V14.01,2013-04-08 22:56:00,
2013-04-08 19:01:00,64.6,41.0,30.00,ESE,106,0.0,1.0,42,0.00,,,0.00,VWS V14.01,2013-04-08 23:01:00,
2013-04-08 19:06:00,64.3,38.8,30.00,ESE,106,0.0,1.0,39,0.00,,,0.00,VWS V14.01,2013-04-08 23:06:00,
2013-04-08 19:11:00,64.0,39.8,30.00,ESE,106,0.0,1.0,41,0.00,,,0.00,VWS V14.01,2013-04-08 23:11:00,
2013-04-08 19:16:00,63.6,40.1,30.00,ESE,106,0.0,1.0,42,0.00,,,0.00,VWS V14.01,2013-04-08 23:16:00,
2013-04-08 19:21:00,63.2,40.3,30.00,ESE,106,0.0,1.0,43,0.00,,,0.00,VWS V14.01,2013-04-08 23:21:00,
2013-04-08 19:26:00,62.9,38.9,30.00,ESE,106,0.0,1.0,41,0.00,,,0.00,VWS V14.01,2013-04-08 23:26:00,
2013-04-08 19:31:00,62.5,39.1,30.01,ESE,106,0.0,0.0,42,0.00,,,0.00,VWS V14.01,2013-04-08 23:31:00,
2013-04-08 19:36:00,62.3,39.5,30.01,ESE,106,0.0,2.0,43,0.00,,,0.00,VWS V14.01,2013-04-08 23:36:00,
2013-04-08 19:41:00,62.2,40.6,30.01,East,99,0.0,2.0,45,0.00,,,0.00,VWS V14.01,2013-04-08 23:41:00,
2013-04-08 19:47:00,62.1,40.0,30.01,East,99,0.0,2.0,44,0.00,,,0.00,VWS V14.01,2013-04-08 23:47:00,
2013-04-08 19:52:00,62.1,40.5,30.01,East,97,0.0,2.0,45,0.00,,,0.00,VWS V14.01,2013-04-08 23:52:00,
2013-04-08 19:57:00,62.1,40.5,30.02,SW,221,0.0,2.0,45,0.00,,,0.00,VWS V14.01,2013-04-08 23:57:00,
2013-04-08 20:02:00,62.0,41.0,30.01,SW,221,1.0,1.0,46,0.00,,,0.00,VWS V14.01,2013-04-09 00:02:00,
2013-04-08 20:07:00,61.8,40.8,30.02,SW,221,0.0,1.0,46,0.00,,,0.00,VWS V14.01,2013-04-09 00:07:00,
2013-04-08 20:12:00,61.4,41.6,30.02,SW,221,0.0,1.0,48,0.00,,,0.00,VWS V14.01,2013-04-09 00:12:00,
2013-04-08 20:17:00,61.0,41.2,30.02,SW,221,0.0,1.0,48,0.00,,,0.00,VWS V14.01,2013-04-09 00:17:00,
2013-04-08 20:22:00,60.6,41.4,30.02,SW,221,0.0,1.0,49,0.00,,,0.00,VWS V14.01,2013-04-09 00:22:00,
2013-04-08 20:27:00,60.4,41.7,30.02,SW,221,0.0,1.0,50,0.00,,,0.00,VWS V14.01,2013-04-09 00:27:00,
2013-04-08 20:32:00,60.2,41.5,30.02,SW,221,0.0,0.0,50,0.00,,,0.00,VWS V14.01,2013-04-09 00:32:00,
2013-04-08 20:37:00,60.0,41.8,30.02,SW,221,0.0,0.0,51,0.00,,,0.00,VWS V14.01,2013-04-09 00:37:00,
2013-04-08 20:42:00,59.7,42.1,30.02,SW,221,0.0,0.0,52,0.00,,,0.00,VWS V14.01,2013-04-09 00:42:00,
2013-04-08 20:48:00,59.4,41.8,30.02,SW,221,0.0,0.0,52,0.00,,,0.00,VWS V14.01,2013-04-09 00:48:00,
2013-04-08 20:53:00,59.1,42.0,30.02,ESE,105,0.0,1.0,53,0.00,,,0.00,VWS V14.01,2013-04-09 00:53:00,
2013-04-08 20:58:00,59.0,42.4,30.02,ESE,105,0.0,1.0,54,0.00,,,0.00,VWS V14.01,2013-04-09 00:58:00,
2013-04-08 21:03:00,58.8,42.2,30.02,ESE,105,0.0,1.0,54,0.00,,,0.00,VWS V14.01,2013-04-09 01:03:00,
2013-04-08 21:08:00,58.6,42.5,30.03,ESE,105,0.0,1.0,55,0.00,,,0.00,VWS V14.01,2013-04-09 01:08:00,
2013-04-08 21:13:00,58.4,42.8,30.03,ESE,119,0.0,1.0,56,0.00,,,0.00,VWS V14.01,2013-04-09 01:13:00,
2013-04-08 21:18:00,58.1,42.5,30.04,ESE,119,0.0,1.0,56,0.00,,,0.00,VWS V14.01,2013-04-09 01:18:00,
2013-04-08 21:23:00,57.8,42.2,30.03,ESE,119,0.0,1.0,56,0.00,,,0.00,VWS V14.01,2013-04-09 01:23:00,
2013-04-08 21:29:00,57.7,42.1,30.03,ESE,119,0.0,1.0,56,0.00,,,0.00,VWS V14.01,2013-04-09 01:29:00,
2013-04-08 21:34:00,57.6,43.0,30.03,ESE,119,0.0,0.0,58,0.00,,,0.00,VWS V14.01,2013-04-09 01:34:00,
2013-04-08 21:39:00,57.3,42.7,30.03,ESE,119,2.0,2.0,58,0.00,,,0.00,VWS V14.01,2013-04-09 01:39:00,
2013-04-08 21:44:00,57.5,42.4,30.02,ESE,119,0.0,2.0,57,0.00,,,0.00,VWS V14.01,2013-04-09 01:44:00,
2013-04-08 21:49:00,57.4,42.8,30.02,ESE,119,0.0,2.0,58,0.00,,,0.00,VWS V14.01,2013-04-09 01:49:00,
2013-04-08 21:54:00,57.2,42.6,30.02,ESE,119,0.0,2.0,58,0.00,,,0.00,VWS V14.01,2013-04-09 01:54:00,
2013-04-08 22:00:00,56.9,43.6,30.01,ESE,119,0.0,2.0,61,0.00,,,0.00,VWS V14.01,2013-04-09 02:00:00,
2013-04-08 22:05:00,56.6,42.9,30.02,NE,36,0.0,3.0,60,0.00,,,0.00,VWS V14.01,2013-04-09 02:05:00,
2013-04-08 22:10:00,56.7,43.0,30.02,NE,36,0.0,3.0,60,0.00,,,0.00,VWS V14.01,2013-04-09 02:10:00,
2013-04-08 22:15:00,56.6,42.9,30.02,NE,36,0.0,3.0,60,0.00,,,0.00,VWS V14.01,2013-04-09 02:15:00,
2013-04-08 22:20:00,56.3,42.6,30.02,NE,36,0.0,3.0,60,0.00,,,0.00,VWS V14.01,2013-04-09 02:20:00,
2013-04-08 22:25:00,56.0,42.8,30.02,NE,36,0.0,3.0,61,0.00,,,0.00,VWS V14.01,2013-04-09 02:25:00,
2013-04-08 22:30:00,55.7,43.3,30.02,NE,36,0.0,3.0,63,0.00,,,0.00,VWS V14.01,2013-04-09 02:30:00,
2013-04-08 22:35:00,55.4,43.0,30.02,NE,36,0.0,0.0,63,0.00,,,0.00,VWS V14.01,2013-04-09 02:35:00,
2013-04-08 22:41:00,55.3,42.9,30.01,NE,36,0.0,0.0,63,0.00,,,0.00,VWS V14.01,2013-04-09 02:41:00,
2013-04-08 22:46:00,55.0,42.7,30.01,NE,36,0.0,0.0,63,0.00,,,0.00,VWS V14.01,2013-04-09 02:46:00,
2013-04-08 22:51:00,54.9,43.0,30.01,NE,36,0.0,0.0,64,0.00,,,0.00,VWS V14.01,2013-04-09 02:51:00,
2013-04-08 22:56:00,54.9,43.4,30.01,NE,36,0.0,0.0,65,0.00,,,0.00,VWS V14.01,2013-04-09 02:56:00,
2013-04-08 23:01:00,54.9,43.4,30.01,NE,36,1.0,1.0,65,0.00,,,0.00,VWS V14.01,2013-04-09 03:01:00,
2013-04-08 23:07:00,54.7,43.2,30.01,NE,36,0.0,2.0,65,0.00,,,0.00,VWS V14.01,2013-04-09 03:07:00,
2013-04-08 23:12:00,54.7,43.2,30.01,NE,36,0.0,2.0,65,0.00,,,0.00,VWS V14.01,2013-04-09 03:12:00,
2013-04-08 23:17:00,54.5,43.8,30.01,NE,36,0.0,2.0,67,0.00,,,0.00,VWS V14.01,2013-04-09 03:17:00,
2013-04-08 23:22:00,54.2,43.5,30.01,NE,36,0.0,2.0,67,0.00,,,0.00,VWS V14.01,2013-04-09 03:22:00,
2013-04-08 23:27:00,54.1,43.4,30.01,NE,36,0.0,2.0,67,0.00,,,0.00,VWS V14.01,2013-04-09 03:27:00,
2013-04-08 23:32:00,54.0,43.3,30.00,NE,36,0.0,0.0,67,0.00,,,0.00,VWS V14.01,2013-04-09 03:32:00,
2013-04-08 23:37:00,53.9,43.2,30.00,NE,36,0.0,0.0,67,0.00,,,0.00,VWS V14.01,2013-04-09 03:37:00,
2013-04-08 23:42:00,54.1,42.6,30.00,NE,36,0.0,1.0,65,0.00,,,0.00,VWS V14.01,2013-04-09 03:42:00,
2013-04-08 23:48:00,54.2,42.7,30.00,NE,36,0.0,2.0,65,0.00,,,0.00,VWS V14.01,2013-04-09 03:48:00,
2013-04-08 23:53:00,54.4,42.9,30.00,NE,36,0.0,2.0,65,0.00,,,0.00,VWS V14.01,2013-04-09 03:53:00,
2013-04-08 23:58:00,54.6,42.7,30.00,NE,36,1.0,2.0,64,0.00,,,0.00,VWS V14.01,2013-04-09 03:58:00,